Time,TemperatureF,DewpointF,PressureIn,WindDirection,WindDirectionDegrees,WindSpeedMPH,WindSpeedGustMPH,Humidity,HourlyPrecipIn,Conditions,Clouds,dailyrainin,SoftwareType,DateUTC
2013-04-22 00:00:00,55.3,39.9,30.26,NE,54,0.0,-999.0,56,0.00,,,0.00,Wunderground v.1.12,2013-04-22 04:00:00,
2013-04-22 00:01:00,55.3,39.9,30.26,NE,54,0.0,-999.0,56,0.00,,,0.00,Wunderground v.1.12,2013-04-22 04:01:00,
2013-04-22 00:02:00,55.3,39.9,30.26,NE,54,0.0,-999.0,56,0.00,,,0.00,Wunderground v.1.12,2013-04-22 04:02:00,
2013-04-22 00:05:00,55.3,39.9,30.26,NNE,26,0.0,-999.0,56,0.00,,,0.00,Wunderground v.1.12,2013-04-22 04:05:00,
2013-04-22 00:08:00,55.3,39.9,30.26,ENE,67,0.0,-999.0,56,0.00,,,0.00,Wunderground v.1.12,2013-04-22 04:08:00,
2013-04-22 00:09:00,55.3,39.9,30.26,ENE,67,0.0,-999.0,56,0.00,,,0.00,Wunderground v.1.12,2013-04-22 04:09:00,
2013-04-22 00:14:00,55.3,39.4,30.26,ENE,58,6.0,-999.0,55,0.00,,,0.00,Wunderground v.1.12,2013-04-22 04:14:00,
2013-04-22 00:20:00,55.3,39.9,30.26,NE,50,0.0,-999.0,56,0.00,,,0.00,Wunderground v.1.12,2013-04-22 04:20:00,
2013-04-22 00:25:00,55.3,39.9,30.26,North,6,0.0,-999.0,56,0.00,,,0.00,Wunderground v.1.12,2013-04-22 04:25:00,
2013-04-22 00:31:00,55.3,39.4,30.26,North,10,0.0,-999.0,55,0.00,,,0.00,Wunderground v.1.12,2013-04-22 04:31:00,
2013-04-22 00:36:00,55.3,39.9,30.26,North,6,0.0,-999.0,56,0.00,,,0.00,Wunderground v.1.12,2013-04-22 04:36:00,
2013-04-22 00:42:00,55.3,39.4,30.25,North,7,0.0,-999.0,55,0.00,,,0.00,Wunderground v.1.12,2013-04-22 04:42:00,
2013-04-22 00:47:00,55.1,39.7,30.25,ENE,58,0.0,-999.0,56,0.00,,,0.00,Wunderground v.1.12,2013-04-22 04:47:00,
2013-04-22 00:53:00,55.1,39.7,30.25,East,94,0.0,-999.0,56,0.00,,,0.00,Wunderground v.1.12,2013-04-22 04:53:00,
2013-04-22 00:58:00,55.1,39.7,30.25,NNW,339,0.0,-999.0,56,0.00,,,0.00,Wunderground v.1.12,2013-04-22 04:58:00,
2013-04-22 01:04:00,55.0,39.6,30.25,NE,44,0.0,-999.0,56,0.00,,,0.00,Wunderground v.1.12,2013-04-22 05:04:00,
2013-04-22 01:10:00,54.8,39.4,30.25,North,352,0.0,-999.0,56,0.00,,,0.00,Wunderground v.1.12,2013-04-22 05:10:00,
2013-04-22 01:15:00,54.8,39.4,30.25,NE,46,0.0,-999.0,56,0.00,,,0.00,Wunderground v.1.12,2013-04-22 05:15:00,
2013-04-22 01:21:00,54.7,39.8,30.25,NE,46,0.0,-999.0,57,0.00,,,0.00,Wunderground v.1.12,2013-04-22 05:21:00,
2013-04-22 01:26:00,54.7,39.8,30.25,NE,41,0.0,-999.0,57,0.00,,,0.00,Wunderground v.1.12,2013-04-22 05:26:00,
2013-04-22 01:32:00,54.5,39.6,30.25,North,355,1.0,-999.0,57,0.00,,,0.00,Wunderground v.1.12,2013-04-22 05:32:00,
2013-04-22 01:37:00,54.4,39.5,30.25,NNW,345,0.0,-999.0,57,0.00,,,0.00,Wunderground v.1.12,2013-04-22 05:37:00,
2013-04-22 01:43:00,54.4,39.9,30.25,NE,47,0.0,-999.0,58,0.00,,,0.00,Wunderground v.1.12,2013-04-22 05:43:00,
2013-04-22 01:49:00,54.2,39.7,30.25,ENE,72,0.0,-999.0,58,0.00,,,0.00,Wunderground v.1.12,2013-04-22 05:49:00,
2013-04-22 01:55:00,54.1,39.6,30.25,NE,37,0.0,-999.0,58,0.00,,,0.00,Wunderground v.1.12,2013-04-22 05:55:00,
2013-04-22 02:00:00,54.1,39.6,30.25,NNE,29,0.0,-999.0,58,0.00,,,0.00,Wunderground v.1.12,2013-04-22 06:00:00,
2013-04-22 02:05:00,53.9,39.5,30.25,North,3,2.0,-999.0,58,0.00,,,0.00,Wunderground v.1.12,2013-04-22 06:05:00,
2013-04-22 02:10:00,53.9,39.5,30.25,NE,43,1.0,-999.0,58,0.00,,,0.00,Wunderground v.1.12,2013-04-22 06:10:00,
2013-04-22 02:15:00,53.8,39.4,30.24,NE,53,2.0,-999.0,58,0.00,,,0.00,Wunderground v.1.12,2013-04-22 06:15:00,
2013-04-22 02:20:00,53.8,39.4,30.24,East,94,4.0,-999.0,58,0.00,,,0.00,Wunderground v.1.12,2013-04-22 06:20:00,
2013-04-22 02:25:00,53.8,39.4,30.24,NNE,17,0.0,-999.0,58,0.00,,,0.00,Wunderground v.1.12,2013-04-22 06:25:00,
2013-04-22 02:30:00,53.6,39.2,30.24,NNE,17,0.0,-999.0,58,0.00,,,0.00,Wunderground v.1.12,2013-04-22 06:30:00,
2013-04-22 02:35:00,53.6,39.2,30.24,NE,41,3.0,-999.0,58,0.00,,,0.00,Wunderground v.1.12,2013-04-22 06:35:00,
2013-04-22 02:40:00,53.5,39.5,30.24,NE,37,1.0,-999.0,59,0.00,,,0.00,Wunderground v.1.12,2013-04-22 06:40:00,
2013-04-22 02:45:00,53.5,39.5,30.24,ENE,78,0.0,-999.0,59,0.00,,,0.00,Wunderground v.1.12,2013-04-22 06:45:00,
2013-04-22 02:50:00,53.3,39.3,30.24,NE,55,0.0,-999.0,59,0.00,,,0.00,Wunderground v.1.12,2013-04-22 06:50:00,
2013-04-22 02:55:00,53.3,39.3,30.23,NE,55,0.0,-999.0,59,0.00,,,0.00,Wunderground v.1.12,2013-04-22 06:55:00,
2013-04-22 03:00:00,53.2,39.7,30.23,NNE,22,0.0,-999.0,60,0.00,,,0.00,Wunderground v.1.12,2013-04-22 07:00:00,
2013-04-22 03:06:00,53.1,39.6,30.23,North,356,1.0,-999.0,60,0.00,,,0.00,Wunderground v.1.12,2013-04-22 07:06:00,
2013-04-22 03:11:00,53.1,39.6,30.23,ENE,72,0.0,-999.0,60,0.00,,,0.00,Wunderground v.1.12,2013-04-22 07:11:00,
2013-04-22 03:16:00,52.9,39.4,30.23,NE,40,0.0,-999.0,60,0.00,,,0.00,Wunderground v.1.12,2013-04-22 07:16:00,
2013-04-22 03:21:00,52.9,39.8,30.23,NNE,26,0.0,-999.0,61,0.00,,,0.00,Wunderground v.1.12,2013-04-22 07:21:00,
2013-04-22 03:26:00,52.8,39.7,30.23,ENE,58,0.0,-999.0,61,0.00,,,0.00,Wunderground v.1.12,2013-04-22 07:26:00,
2013-04-22 03:31:00,52.8,39.7,30.23,ENE,75,2.0,-999.0,61,0.00,,,0.00,Wunderground v.1.12,2013-04-22 07:31:00,
2013-04-22 03:36:00,52.6,39.5,30.23,East,96,0.0,-999.0,61,0.00,,,0.00,Wunderground v.1.12,2013-04-22 07:36:00,
2013-04-22 03:41:00,52.6,39.5,30.23,North,10,0.0,-999.0,61,0.00,,,0.00,Wunderground v.1.12,2013-04-22 07:41:00,
2013-04-22 03:46:00,52.5,39.8,30.23,NNE,29,0.0,-999.0,62,0.00,,,0.00,Wunderground v.1.12,2013-04-22 07:46:00,
2013-04-22 03:51:00,52.5,39.8,30.23,NE,54,0.0,-999.0,62,0.00,,,0.00,Wunderground v.1.12,2013-04-22 07:51:00,
2013-04-22 03:56:00,52.3,39.7,30.23,ENE,71,0.0,-999.0,62,0.00,,,0.00,Wunderground v.1.12,2013-04-22 07:56:00,
2013-04-22 04:01:00,52.3,39.7,30.23,NNE,31,0.0,-999.0,62,0.00,,,0.00,Wunderground v.1.12,2013-04-22 08:01:00,
2013-04-22 04:06:00,52.2,39.6,30.23,North,3,0.0,-999.0,62,0.00,,,0.00,Wunderground v.1.12,2013-04-22 08:06:00,
2013-04-22 04:11:00,52.2,39.6,30.24,NNE,31,0.0,-999.0,62,0.00,,,0.00,Wunderground v.1.12,2013-04-22 08:11:00,
2013-04-22 04:16:00,52.0,39.4,30.24,NE,54,0.0,-999.0,62,0.00,,,0.00,Wunderground v.1.12,2013-04-22 08:16:00,
2013-04-22 04:21:00,52.0,39.8,30.24,NE,46,0.0,-999.0,63,0.00,,,0.00,Wunderground v.1.12,2013-04-22 08:21:00,
2013-04-22 04:26:00,51.9,39.7,30.24,NE,43,0.0,-999.0,63,0.00,,,0.00,Wunderground v.1.12,2013-04-22 08:26:00,
2013-04-22 04:31:00,51.7,39.5,30.24,NE,43,0.0,-999.0,63,0.00,,,0.00,Wunderground v.1.12,2013-04-22 08:31:00,
2013-04-22 04:36:00,51.6,39.8,30.24,NE,44,0.0,-999.0,64,0.00,,,0.00,Wunderground v.1.12,2013-04-22 08:36:00,
2013-04-22 04:41:00,51.6,39.8,30.24,NE,38,0.0,-999.0,64,0.00,,,0.00,Wunderground v.1.12,2013-04-22 08:41:00,
2013-04-22 04:46:00,51.4,39.6,30.24,NNE,14,0.0,-999.0,64,0.00,,,0.00,Wunderground v.1.12,2013-04-22 08:46:00,
2013-04-22 04:51:00,51.3,39.5,30.24,NNE,14,0.0,-999.0,64,0.00,,,0.00,Wunderground v.1.12,2013-04-22 08:51:00,
2013-04-22 04:56:00,51.1,39.7,30.25,NNE,14,0.0,-999.0,65,0.00,,,0.00,Wunderground v.1.12,2013-04-22 08:56:00,
2013-04-22 05:01:00,51.1,39.7,30.25,NNE,16,0.0,-999.0,65,0.00,,,0.00,Wunderground v.1.12,2013-04-22 09:01:00,
2013-04-22 05:06:00,51.0,39.6,30.25,North,10,0.0,-999.0,65,0.00,,,0.00,Wunderground v.1.12,2013-04-22 09:06:00,
2013-04-22 05:11:00,50.8,39.5,30.26,NE,36,0.0,-999.0,65,0.00,,,0.00,Wunderground v.1.12,2013-04-22 09:11:00,
2013-04-22 05:16:00,50.8,39.5,30.26,NE,36,0.0,-999.0,65,0.00,,,0.00,Wunderground v.1.12,2013-04-22 09:16:00,
2013-04-22 05:21:00,50.7,39.7,30.26,NE,34,0.0,-999.0,66,0.00,,,0.00,Wunderground v.1.12,2013-04-22 09:21:00,
2013-04-22 05:26:00,50.5,39.6,30.26,NE,36,0.0,-999.0,66,0.00,,,0.00,Wunderground v.1.12,2013-04-22 09:26:00,
2013-04-22 05:31:00,50.4,39.9,30.26,ENE,75,0.0,-999.0,67,0.00,,,0.00,Wunderground v.1.12,2013-04-22 09:31:00,
2013-04-22 05:36:00,50.4,39.9,30.26,ENE,77,0.0,-999.0,67,0.00,,,0.00,Wunderground v.1.12,2013-04-22 09:36:00,
2013-04-22 05:41:00,50.2,39.7,30.26,ENE,75,0.0,-999.0,67,0.00,,,0.00,Wunderground v.1.12,2013-04-22 09:41:00,
2013-04-22 05:46:00,50.2,39.7,30.26,ENE,75,0.0,-999.0,67,0.00,,,0.00,Wunderground v.1.12,2013-04-22 09:46:00,
2013-04-22 05:51:00,50.1,39.6,30.26,ENE,75,0.0,-999.0,67,0.00,,,0.00,Wunderground v.1.12,2013-04-22 09:51:00,
2013-04-22 05:56:00,49.9,39.8,30.27,ENE,57,0.0,-999.0,68,0.00,,,0.00,Wunderground v.1.12,2013-04-22 09:56:00,
2013-04-22 06:01:00,49.8,39.7,30.27,NNW,338,0.0,-999.0,68,0.00,,,0.00,Wunderground v.1.12,2013-04-22 10:01:00,
2013-04-22 06:06:00,49.8,39.7,30.27,NE,47,1.0,-999.0,68,0.00,,,0.00,Wunderground v.1.12,2013-04-22 10:06:00,
2013-04-22 06:11:00,49.6,39.5,30.27,NNE,27,0.0,-999.0,68,0.00,,,0.00,Wunderground v.1.12,2013-04-22 10:11:00,
2013-04-22 06:16:00,49.5,39.7,30.27,East,96,0.0,-999.0,69,0.00,,,0.00,Wunderground v.1.12,2013-04-22 10:16:00,
2013-04-22 06:21:00,49.4,39.7,30.27,NE,36,5.0,-999.0,69,0.00,,,0.00,Wunderground v.1.12,2013-04-22 10:21:00,
2013-04-22 06:26:00,49.4,39.7,30.27,North,9,0.0,-999.0,69,0.00,,,0.00,Wunderground v.1.12,2013-04-22 10:26:00,
2013-04-22 06:31:00,49.2,39.5,30.27,NE,38,2.0,-999.0,69,0.00,,,0.00,Wunderground v.1.12,2013-04-22 10:31:00,
2013-04-22 06:36:00,49.2,39.5,30.27,NE,51,0.0,-999.0,69,0.00,,,0.00,Wunderground v.1.12,2013-04-22 10:36:00,
2013-04-22 06:42:00,49.1,39.4,30.28,ESE,106,0.0,-999.0,69,0.00,,,0.00,Wunderground v.1.12,2013-04-22 10:42:00,
2013-04-22 06:48:00,49.1,39.4,30.28,NE,54,0.0,-999.0,69,0.00,,,0.00,Wunderground v.1.12,2013-04-22 10:48:00,
2013-04-22 06:53:00,48.9,39.2,30.28,East,79,0.0,-999.0,69,0.00,,,0.00,Wunderground v.1.12,2013-04-22 10:53:00,
2013-04-22 06:58:00,48.9,39.2,30.28,ENE,74,0.0,-999.0,69,0.00,,,0.00,Wunderground v.1.12,2013-04-22 10:58:00,
2013-04-22 07:03:00,48.9,39.2,30.28,ENE,68,0.0,-999.0,69,0.00,,,0.00,Wunderground v.1.12,2013-04-22 11:03:00,
2013-04-22 07:08:00,48.8,39.1,30.28,NE,46,0.0,-999.0,69,0.00,,,0.00,Wunderground v.1.12,2013-04-22 11:08:00,
2013-04-22 07:13:00,48.8,39.1,30.29,NNE,26,0.0,-999.0,69,0.00,,,0.00,Wunderground v.1.12,2013-04-22 11:13:00,
2013-04-22 07:18:00,48.8,39.1,30.29,North,7,0.0,-999.0,69,0.00,,,0.00,Wunderground v.1.12,2013-04-22 11:18:00,
2013-04-22 07:23:00,48.8,39.1,30.29,NE,53,0.0,-999.0,69,0.00,,,0.00,Wunderground v.1.12,2013-04-22 11:23:00,
2013-04-22 07:28:00,48.8,39.1,30.29,East,79,0.0,-999.0,69,0.00,,,0.00,Wunderground v.1.12,2013-04-22 11:28:00,
2013-04-22 07:33:00,48.9,39.2,30.29,ENE,57,0.0,-999.0,69,0.00,,,0.00,Wunderground v.1.12,2013-04-22 11:33:00,
2013-04-22 07:38:00,48.9,38.8,30.29,ENE,57,0.0,-999.0,68,0.00,,,0.00,Wunderground v.1.12,2013-04-22 11:38:00,
2013-04-22 07:43:00,48.9,38.8,30.29,NNW,342,0.0,-999.0,68,0.00,,,0.00,Wunderground v.1.12,2013-04-22 11:43:00,
2013-04-22 07:48:00,49.1,39.0,30.29,ESE,115,5.0,-999.0,68,0.00,,,0.00,Wunderground v.1.12,2013-04-22 11:48:00,
2013-04-22 07:53:00,49.2,38.7,30.29,ENE,58,0.0,-999.0,67,0.00,,,0.00,Wunderground v.1.12,2013-04-22 11:53:00,
2013-04-22 07:58:00,49.2,38.7,30.30,NE,50,0.0,-999.0,67,0.00,,,0.00,Wunderground v.1.12,2013-04-22 11:58:00,
2013-04-22 08:03:00,49.4,38.9,30.30,East,99,7.0,-999.0,67,0.00,,,0.00,Wunderground v.1.12,2013-04-22 12:03:00,
2013-04-22 08:08:00,49.5,38.6,30.30,NE,43,1.0,-999.0,66,0.00,,,0.00,Wunderground v.1.12,2013-04-22 12:08:00,
2013-04-22 08:13:00,49.8,38.5,30.30,NE,50,2.0,-999.0,65,0.00,,,0.00,Wunderground v.1.12,2013-04-22 12:13:00,
2013-04-22 08:18:00,49.9,37.8,30.30,North,6,1.0,-999.0,63,0.00,,,0.00,Wunderground v.1.12,2013-04-22 12:18:00,
2013-04-22 08:23:00,50.2,38.1,30.30,ENE,70,0.0,-999.0,63,0.00,,,0.00,Wunderground v.1.12,2013-04-22 12:23:00,
2013-04-22 08:28:00,50.5,38.0,30.30,ENE,60,3.0,-999.0,62,0.00,,,0.00,Wunderground v.1.12,2013-04-22 12:28:00,
2013-04-22 08:33:00,50.8,37.8,30.30,East,79,0.0,-999.0,61,0.00,,,0.00,Wunderground v.1.12,2013-04-22 12:33:00,
2013-04-22 08:38:00,51.1,37.7,30.30,SE,132,2.0,-999.0,60,0.00,,,0.00,Wunderground v.1.12,2013-04-22 12:38:00,
2013-04-22 08:43:00,51.4,37.5,30.30,NNE,30,0.0,-999.0,59,0.00,,,0.00,Wunderground v.1.12,2013-04-22 12:43:00,
2013-04-22 08:48:00,51.6,37.7,30.30,NE,46,0.0,-999.0,59,0.00,,,0.00,Wunderground v.1.12,2013-04-22 12:48:00,
2013-04-22 08:53:00,51.9,37.6,30.30,NNE,23,0.0,-999.0,58,0.00,,,0.00,Wunderground v.1.12,2013-04-22 12:53:00,
2013-04-22 08:58:00,52.2,37.4,30.30,East,94,0.0,-999.0,57,0.00,,,0.00,Wunderground v.1.12,2013-04-22 12:58:00,
2013-04-22 09:03:00,52.5,36.8,30.30,East,88,0.0,-999.0,55,0.00,,,0.00,Wunderground v.1.12,2013-04-22 13:03:00,
2013-04-22 09:08:00,52.8,37.1,30.30,NNW,339,2.0,-999.0,55,0.00,,,0.00,Wunderground v.1.12,2013-04-22 13:08:00,
2013-04-22 09:14:00,53.1,35.9,30.30,West,271,3.0,-999.0,52,0.00,,,0.00,Wunderground v.1.12,2013-04-22 13:14:00,
2013-04-22 09:19:00,53.3,35.6,30.30,NNE,27,1.0,-999.0,51,0.00,,,0.00,Wunderground v.1.12,2013-04-22 13:19:00,
2013-04-22 09:24:00,53.6,36.4,30.30,NE,54,0.0,-999.0,52,0.00,,,0.00,Wunderground v.1.12,2013-04-22 13:24:00,
2013-04-22 09:29:00,53.9,35.7,30.29,NNW,339,0.0,-999.0,50,0.00,,,0.00,Wunderground v.1.12,2013-04-22 13:29:00,
2013-04-22 09:34:00,54.2,35.9,30.29,ENE,74,1.0,-999.0,50,0.00,,,0.00,Wunderground v.1.12,2013-04-22 13:34:00,
2013-04-22 09:39:00,54.5,36.2,30.29,North,356,4.0,-999.0,50,0.00,,,0.00,Wunderground v.1.12,2013-04-22 13:39:00,
2013-04-22 09:44:00,54.8,36.5,30.29,NE,37,2.0,-999.0,50,0.00,,,0.00,Wunderground v.1.12,2013-04-22 13:44:00,
2013-04-22 09:49:00,55.1,36.8,30.29,NE,47,0.0,-999.0,50,0.00,,,0.00,Wunderground v.1.12,2013-04-22 13:49:00,
2013-04-22 09:54:00,55.4,37.1,30.29,East,92,5.0,-999.0,50,0.00,,,0.00,Wunderground v.1.12,2013-04-22 13:54:00,
2013-04-22 09:59:00,55.9,37.0,30.28,NNE,12,0.0,-999.0,49,0.00,,,0.00,Wunderground v.1.12,2013-04-22 13:59:00,
2013-04-22 10:04:00,56.2,37.8,30.28,NE,47,0.0,-999.0,50,0.00,,,0.00,Wunderground v.1.12,2013-04-22 14:04:00,
2013-04-22 10:09:00,56.6,37.6,30.28,ENE,72,6.0,-999.0,49,0.00,,,0.00,Wunderground v.1.12,2013-04-22 14:09:00,
2013-04-22 10:14:00,57.0,38.5,30.28,West,263,0.0,-999.0,50,0.00,,,0.00,Wunderground v.1.12,2013-04-22 14:14:00,
2013-04-22 10:19:00,57.3,38.8,30.28,NE,34,2.0,-999.0,50,0.00,,,0.00,Wunderground v.1.12,2013-04-22 14:19:00,
2013-04-22 10:24:00,57.8,38.2,30.28,NNE,24,0.0,-999.0,48,0.00,,,0.00,Wunderground v.1.12,2013-04-22 14:24:00,
2013-04-22 10:29:00,58.3,38.7,30.28,NNE,31,0.0,-999.0,48,0.00,,,0.00,Wunderground v.1.12,2013-04-22 14:29:00,
2013-04-22 10:35:00,58.6,38.4,30.28,NNW,329,2.0,-999.0,47,0.00,,,0.00,Wunderground v.1.12,2013-04-22 14:35:00,
2013-04-22 10:40:00,58.9,39.8,30.28,NNW,341,6.0,-999.0,49,0.00,,,0.00,Wunderground v.1.12,2013-04-22 14:40:00,
2013-04-22 10:45:00,59.0,38.8,30.29,ENE,64,5.0,-999.0,47,0.00,,,0.00,Wunderground v.1.12,2013-04-22 14:45:00,
2013-04-22 10:50:00,59.3,39.1,30.29,NNW,343,0.0,-999.0,47,0.00,,,0.00,Wunderground v.1.12,2013-04-22 14:50:00,
2013-04-22 10:55:00,59.6,38.8,30.29,NE,53,2.0,-999.0,46,0.00,,,0.00,Wunderground v.1.12,2013-04-22 14:55:00,
2013-04-22 11:00:00,60.1,39.2,30.29,West,276,0.0,-999.0,46,0.00,,,0.00,Wunderground v.1.12,2013-04-22 15:00:00,
2013-04-22 11:05:00,60.4,39.5,30.29,ENE,58,0.0,-999.0,46,0.00,,,0.00,Wunderground v.1.12,2013-04-22 15:05:00,
2013-04-22 11:10:00,60.9,39.4,30.29,NNW,334,0.0,-999.0,45,0.00,,,0.00,Wunderground v.1.12,2013-04-22 15:10:00,
2013-04-22 11:15:00,61.3,39.2,30.29,NE,40,0.0,-999.0,44,0.00,,,0.00,Wunderground v.1.12,2013-04-22 15:15:00,
2013-04-22 11:20:00,61.8,40.8,30.29,NE,48,0.0,-999.0,46,0.00,,,0.00,Wunderground v.1.12,2013-04-22 15:20:00,
2013-04-22 11:25:00,62.3,39.5,30.29,ENE,70,0.0,-999.0,43,0.00,,,0.00,Wunderground v.1.12,2013-04-22 15:25:00,
2013-04-22 11:30:00,62.6,40.4,30.29,ENE,77,3.0,-999.0,44,0.00,,,0.00,Wunderground v.1.12,2013-04-22 15:30:00,
2013-04-22 11:35:00,62.9,40.0,30.29,NE,47,2.0,-999.0,43,0.00,,,0.00,Wunderground v.1.12,2013-04-22 15:35:00,
2013-04-22 11:40:00,63.4,41.1,30.29,ENE,62,0.0,-999.0,44,0.00,,,0.00,Wunderground v.1.12,2013-04-22 15:40:00,
2013-04-22 11:45:00,63.9,41.0,30.27,East,81,6.0,-999.0,43,0.00,,,0.00,Wunderground v.1.12,2013-04-22 15:45:00,
2013-04-22 11:50:00,64.2,41.8,30.27,NE,48,7.0,-999.0,44,0.00,,,0.00,Wunderground v.1.12,2013-04-22 15:50:00,
2013-04-22 11:55:00,64.5,42.1,30.27,NNE,30,0.0,-999.0,44,0.00,,,0.00,Wunderground v.1.12,2013-04-22 15:55:00,
2013-04-22 12:00:00,64.8,40.5,30.27,East,96,1.0,-999.0,41,0.00,,,0.00,Wunderground v.1.12,2013-04-22 16:00:00,
2013-04-22 12:05:00,65.0,41.3,30.27,East,81,0.0,-999.0,42,0.00,,,0.00,Wunderground v.1.12,2013-04-22 16:05:00,
2013-04-22 12:10:00,65.3,41.0,30.27,NNE,12,0.0,-999.0,41,0.00,,,0.00,Wunderground v.1.12,2013-04-22 16:10:00,
2013-04-22 12:15:00,65.6,41.3,30.26,NNE,26,1.0,-999.0,41,0.00,,,0.00,Wunderground v.1.12,2013-04-22 16:15:00,
2013-04-22 12:20:00,65.8,40.1,30.26,North,358,2.0,-999.0,39,0.00,,,0.00,Wunderground v.1.12,2013-04-22 16:20:00,
2013-04-22 12:25:00,66.0,41.0,30.26,NE,47,0.0,-999.0,40,0.00,,,0.00,Wunderground v.1.12,2013-04-22 16:25:00,
2013-04-22 12:30:00,66.4,42.6,30.26,ENE,64,0.0,-999.0,42,0.00,,,0.00,Wunderground v.1.12,2013-04-22 16:30:00,
2013-04-22 12:35:00,66.9,41.1,30.26,ENE,58,0.0,-999.0,39,0.00,,,0.00,Wunderground v.1.12,2013-04-22 16:35:00,
2013-04-22 12:40:00,67.8,42.6,30.25,North,10,1.0,-999.0,40,0.00,,,0.00,Wunderground v.1.12,2013-04-22 16:40:00,
2013-04-22 12:45:00,67.9,41.3,30.25,NE,41,0.0,-999.0,38,0.00,,,0.00,Wunderground v.1.12,2013-04-22 16:45:00,
2013-04-22 12:50:00,68.4,41.8,30.25,NNE,23,0.0,-999.0,38,0.00,,,0.00,Wunderground v.1.12,2013-04-22 16:50:00,
2013-04-22 12:55:00,68.8,42.1,30.24,SE,144,1.0,-999.0,38,0.00,,,0.00,Wunderground v.1.12,2013-04-22 16:55:00,
2013-04-22 13:00:00,68.9,41.5,30.24,North,353,0.0,-999.0,37,0.00,,,0.00,Wunderground v.1.12,2013-04-22 17:00:00,
2013-04-22 13:05:00,68.9,42.2,30.24,SSE,158,0.0,-999.0,38,0.00,,,0.00,Wunderground v.1.12,2013-04-22 17:05:00,
2013-04-22 13:10:00,69.1,41.7,30.24,SSW,208,0.0,-999.0,37,0.00,,,0.00,Wunderground v.1.12,2013-04-22 17:10:00,
2013-04-22 13:15:00,69.1,41.0,30.24,NE,51,0.0,-999.0,36,0.00,,,0.00,Wunderground v.1.12,2013-04-22 17:15:00,
2013-04-22 13:20:00,69.3,41.9,30.24,NNE,12,1.0,-999.0,37,0.00,,,0.00,Wunderground v.1.12,2013-04-22 17:20:00,
2013-04-22 13:25:00,69.3,41.9,30.23,East,99,0.0,-999.0,37,0.00,,,0.00,Wunderground v.1.12,2013-04-22 17:25:00,
2013-04-22 13:30:00,69.8,43.0,30.23,ENE,70,1.0,-999.0,38,0.00,,,0.00,Wunderground v.1.12,2013-04-22 17:30:00,
2013-04-22 13:35:00,70.1,41.9,30.23,NNE,27,0.0,-999.0,36,0.00,,,0.00,Wunderground v.1.12,2013-04-22 17:35:00,
2013-04-22 13:40:00,70.6,41.6,30.22,ENE,70,0.0,-999.0,35,0.00,,,0.00,Wunderground v.1.12,2013-04-22 17:40:00,
2013-04-22 13:45:00,70.9,43.3,30.22,ENE,61,0.0,-999.0,37,0.00,,,0.00,Wunderground v.1.12,2013-04-22 17:45:00,
2013-04-22 13:50:00,71.1,42.0,30.22,ENE,58,0.0,-999.0,35,0.00,,,0.00,Wunderground v.1.12,2013-04-22 17:50:00,
2013-04-22 13:55:00,71.6,41.7,30.21,NE,51,0.0,-999.0,34,0.00,,,0.00,Wunderground v.1.12,2013-04-22 17:55:00,
2013-04-22 14:00:00,71.8,43.4,30.21,South,171,4.0,-999.0,36,0.00,,,0.00,Wunderground v.1.12,2013-04-22 18:00:00,
2013-04-22 14:05:00,71.1,42.8,30.21,SSW,204,0.0,-999.0,36,0.00,,,0.00,Wunderground v.1.12,2013-04-22 18:05:00,
2013-04-22 14:10:00,71.5,41.6,30.21,ESE,105,2.0,-999.0,34,0.00,,,0.00,Wunderground v.1.12,2013-04-22 18:10:00,
2013-04-22 14:15:00,71.8,42.7,30.21,NE,34,0.0,-999.0,35,0.00,,,0.00,Wunderground v.1.12,2013-04-22 18:15:00,
2013-04-22 14:21:00,71.8,41.1,30.21,ENE,71,1.0,-999.0,33,0.00,,,0.00,Wunderground v.1.12,2013-04-22 18:21:00,
2013-04-22 14:26:00,71.8,42.7,30.20,North,7,0.0,-999.0,35,0.00,,,0.00,Wunderground v.1.12,2013-04-22 18:26:00,
2013-04-22 14:31:00,71.6,41.7,30.20,NNE,12,0.0,-999.0,34,0.00,,,0.00,Wunderground v.1.12,2013-04-22 18:31:00,
2013-04-22 14:36:00,71.1,42.0,30.20,ESE,102,0.0,-999.0,35,0.00,,,0.00,Wunderground v.1.12,2013-04-22 18:36:00,
2013-04-22 14:41:00,71.1,42.0,30.20,NNE,23,3.0,-999.0,35,0.00,,,0.00,Wunderground v.1.12,2013-04-22 18:41:00,
2013-04-22 14:46:00,70.6,41.6,30.20,NE,41,0.0,-999.0,35,0.00,,,0.00,Wunderground v.1.12,2013-04-22 18:46:00,
2013-04-22 14:51:00,70.1,41.9,30.20,NE,40,0.0,-999.0,36,0.00,,,0.00,Wunderground v.1.12,2013-04-22 18:51:00,
2013-04-22 14:56:00,69.8,42.3,30.19,NE,41,0.0,-999.0,37,0.00,,,0.00,Wunderground v.1.12,2013-04-22 18:56:00,
2013-04-22 15:01:00,69.4,42.0,30.19,NE,55,0.0,-999.0,37,0.00,,,0.00,Wunderground v.1.12,2013-04-22 19:01:00,
2013-04-22 15:06:00,68.9,42.2,30.19,North,350,0.0,-999.0,38,0.00,,,0.00,Wunderground v.1.12,2013-04-22 19:06:00,
2013-04-22 15:11:00,68.8,42.1,30.19,West,271,0.0,-999.0,38,0.00,,,0.00,Wunderground v.1.12,2013-04-22 19:11:00,
2013-04-22 15:16:00,68.4,43.1,30.19,SE,137,0.0,-999.0,40,0.00,,,0.00,Wunderground v.1.12,2013-04-22 19:16:00,
2013-04-22 15:21:00,68.4,42.5,30.19,North,10,2.0,-999.0,39,0.00,,,0.00,Wunderground v.1.12,2013-04-22 19:21:00,
2013-04-22 15:26:00,68.3,43.0,30.18,SE,146,0.0,-999.0,40,0.00,,,0.00,Wunderground v.1.12,2013-04-22 19:26:00,
2013-04-22 15:31:00,68.1,42.9,30.18,SE,127,0.0,-999.0,40,0.00,,,0.00,Wunderground v.1.12,2013-04-22 19:31:00,
2013-04-22 15:36:00,68.1,44.1,30.18,NNE,26,0.0,-999.0,42,0.00,,,0.00,Wunderground v.1.12,2013-04-22 19:36:00,
2013-04-22 15:41:00,68.1,42.9,30.17,ENE,61,0.0,-999.0,40,0.00,,,0.00,Wunderground v.1.12,2013-04-22 19:41:00,
2013-04-22 15:46:00,68.3,43.0,30.17,NE,48,0.0,-999.0,40,0.00,,,0.00,Wunderground v.1.12,2013-04-22 19:46:00,
2013-04-22 15:51:00,68.4,42.5,30.17,North,5,0.0,-999.0,39,0.00,,,0.00,Wunderground v.1.12,2013-04-22 19:51:00,
2013-04-22 15:56:00,68.6,43.9,30.16,North,358,0.0,-999.0,41,0.00,,,0.00,Wunderground v.1.12,2013-04-22 19:56:00,
2013-04-22 16:01:00,68.8,43.5,30.16,NNW,331,0.0,-999.0,40,0.00,,,0.00,Wunderground v.1.12,2013-04-22 20:01:00,
2013-04-22 16:06:00,68.9,43.6,30.16,ENE,78,6.0,-999.0,40,0.00,,,0.00,Wunderground v.1.12,2013-04-22 20:06:00,
2013-04-22 16:11:00,68.9,42.9,30.15,SSE,151,2.0,-999.0,39,0.00,,,0.00,Wunderground v.1.12,2013-04-22 20:11:00,
2013-04-22 16:16:00,68.6,42.6,30.15,NE,47,3.0,-999.0,39,0.00,,,0.00,Wunderground v.1.12,2013-04-22 20:16:00,
2013-04-22 16:21:00,68.6,43.3,30.15,NE,46,0.0,-999.0,40,0.00,,,0.00,Wunderground v.1.12,2013-04-22 20:21:00,
2013-04-22 16:26:00,68.4,43.1,30.14,NNE,12,0.0,-999.0,40,0.00,,,0.00,Wunderground v.1.12,2013-04-22 20:26:00,
2013-04-22 16:31:00,68.3,43.7,30.14,South,184,0.0,-999.0,41,0.00,,,0.00,Wunderground v.1.12,2013-04-22 20:31:00,
2013-04-22 16:36:00,68.3,44.3,30.14,South,188,0.0,-999.0,42,0.00,,,0.00,Wunderground v.1.12,2013-04-22 20:36:00,
2013-04-22 16:41:00,68.3,44.3,30.14,ENE,62,0.0,-999.0,42,0.00,,,0.00,Wunderground v.1.12,2013-04-22 20:41:00,
2013-04-22 16:46:00,68.1,43.5,30.14,WNW,298,0.0,-999.0,41,0.00,,,0.00,Wunderground v.1.12,2013-04-22 20:46:00,
2013-04-22 16:51:00,67.9,44.0,30.14,NNE,33,5.0,-999.0,42,0.00,,,0.00,Wunderground v.1.12,2013-04-22 20:51:00,
2013-04-22 16:56:00,67.9,44.0,30.13,NNE,26,0.0,-999.0,42,0.00,,,0.00,Wunderground v.1.12,2013-04-22 20:56:00,
2013-04-22 17:01:00,67.9,44.0,30.13,NNE,27,0.0,-999.0,42,0.00,,,0.00,Wunderground v.1.12,2013-04-22 21:01:00,
2013-04-22 17:06:00,67.9,44.0,30.13,North,6,0.0,-999.0,42,0.00,,,0.00,Wunderground v.1.12,2013-04-22 21:06:00,
2013-04-22 17:11:00,67.9,44.0,30.13,NNE,13,0.0,-999.0,42,0.00,,,0.00,Wunderground v.1.12,2013-04-22 21:11:00,
2013-04-22 17:16:00,67.9,44.0,30.13,SSW,212,0.0,-999.0,42,0.00,,,0.00,Wunderground v.1.12,2013-04-22 21:16:00,
2013-04-22 17:21:00,67.8,43.9,30.13,NNE,33,0.0,-999.0,42,0.00,,,0.00,Wunderground v.1.12,2013-04-22 21:21:00,
2013-04-22 17:26:00,67.8,44.5,30.12,NNE,31,0.0,-999.0,43,0.00,,,0.00,Wunderground v.1.12,2013-04-22 21:26:00,
2013-04-22 17:31:00,67.8,43.2,30.12,NNE,31,0.0,-999.0,41,0.00,,,0.00,Wunderground v.1.12,2013-04-22 21:31:00,
2013-04-22 17:36:00,67.8,43.9,30.12,NE,38,0.0,-999.0,42,0.00,,,0.00,Wunderground v.1.12,2013-04-22 21:36:00,
2013-04-22 17:42:00,67.8,44.5,30.12,NE,38,0.0,-999.0,43,0.00,,,0.00,Wunderground v.1.12,2013-04-22 21:42:00,
2013-04-22 17:47:00,67.6,44.3,30.12,SSE,160,0.0,-999.0,43,0.00,,,0.00,Wunderground v.1.12,2013-04-22 21:47:00,
2013-04-22 17:52:00,67.6,44.3,30.12,North,359,0.0,-999.0,43,0.00,,,0.00,Wunderground v.1.12,2013-04-22 21:52:00,
2013-04-22 17:57:00,67.6,44.9,30.12,North,355,0.0,-999.0,44,0.00,,,0.00,Wunderground v.1.12,2013-04-22 21:57:00,
2013-04-22 18:02:00,67.6,44.3,30.12,North,5,0.0,-999.0,43,0.00,,,0.00,Wunderground v.1.12,2013-04-22 22:02:00,
2013-04-22 18:07:00,67.6,44.3,30.12,NNE,31,0.0,-999.0,43,0.00,,,0.00,Wunderground v.1.12,2013-04-22 22:07:00,
2013-04-22 18:12:00,67.6,44.9,30.13,North,7,0.0,-999.0,44,0.00,,,0.00,Wunderground v.1.12,2013-04-22 22:12:00,
2013-04-22 18:17:00,67.6,44.3,30.13,North,7,0.0,-999.0,43,0.00,,,0.00,Wunderground v.1.12,2013-04-22 22:17:00,
2013-04-22 18:22:00,67.6,45.5,30.13,North,7,0.0,-999.0,45,0.00,,,0.00,Wunderground v.1.12,2013-04-22 22:22:00,
2013-04-22 18:27:00,67.6,44.9,30.13,NNE,14,0.0,-999.0,44,0.00,,,0.00,Wunderground v.1.12,2013-04-22 22:27:00,
2013-04-22 18:32:00,67.6,44.3,30.13,NE,36,0.0,-999.0,43,0.00,,,0.00,Wunderground v.1.12,2013-04-22 22:32:00,
2013-04-22 18:37:00,67.6,44.9,30.13,NE,44,0.0,-999.0,44,0.00,,,0.00,Wunderground v.1.12,2013-04-22 22:37:00,
2013-04-22 18:42:00,67.6,44.9,30.13,NE,43,0.0,-999.0,44,0.00,,,0.00,Wunderground v.1.12,2013-04-22 22:42:00,
2013-04-22 18:48:00,67.4,44.7,30.13,NE,46,0.0,-999.0,44,0.00,,,0.00,Wunderground v.1.12,2013-04-22 22:48:00,
2013-04-22 18:53:00,67.3,45.2,30.13,NE,34,0.0,-999.0,45,0.00,,,0.00,Wunderground v.1.12,2013-04-22 22:53:00,
2013-04-22 18:58:00,67.3,44.6,30.13,North,7,0.0,-999.0,44,0.00,,,0.00,Wunderground v.1.12,2013-04-22 22:58:00,
2013-04-22 19:03:00,67.1,44.4,30.13,North,9,0.0,-999.0,44,0.00,,,0.00,Wunderground v.1.12,2013-04-22 23:03:00,
2013-04-22 19:08:00,67.1,45.0,30.13,North,9,0.0,-999.0,45,0.00,,,0.00,Wunderground v.1.12,2013-04-22 23:08:00,
2013-04-22 19:13:00,67.1,45.0,30.13,North,9,0.0,-999.0,45,0.00,,,0.00,Wunderground v.1.12,2013-04-22 23:13:00,
2013-04-22 19:18:00,66.9,44.9,30.13,North,2,0.0,-999.0,45,0.00,,,0.00,Wunderground v.1.12,2013-04-22 23:18:00,
2013-04-22 19:23:00,66.9,44.9,30.13,North,3,0.0,-999.0,45,0.00,,,0.00,Wunderground v.1.12,2013-04-22 23:23:00,
2013-04-22 19:28:00,66.8,44.8,30.13,North,0,0.0,-999.0,45,0.00,,,0.00,Wunderground v.1.12,2013-04-22 23:28:00,
2013-04-22 19:33:00,66.6,45.2,30.13,ENE,68,0.0,-999.0,46,0.00,,,0.00,Wunderground v.1.12,2013-04-22 23:33:00,
2013-04-22 19:38:00,66.4,45.0,30.13,ENE,70,0.0,-999.0,46,0.00,,,0.00,Wunderground v.1.12,2013-04-22 23:38:00,
2013-04-22 19:43:00,66.3,46.0,30.13,ENE,70,0.0,-999.0,48,0.00,,,0.00,Wunderground v.1.12,2013-04-22 23:43:00,
2013-04-22 19:48:00,66.1,45.8,30.13,ENE,70,0.0,-999.0,48,0.00,,,0.00,Wunderground v.1.12,2013-04-22 23:48:00,
2013-04-22 19:53:00,66.0,45.2,30.13,ENE,70,0.0,-999.0,47,0.00,,,0.00,Wunderground v.1.12,2013-04-22 23:53:00,
2013-04-22 19:58:00,65.8,46.1,30.13,ENE,70,0.0,-999.0,49,0.00,,,0.00,Wunderground v.1.12,2013-04-22 23:58:00,
2013-04-22 20:03:00,65.6,46.5,30.13,ENE,70,0.0,-999.0,50,0.00,,,0.00,Wunderground v.1.12,2013-04-23 00:03:00,
2013-04-22 20:08:00,65.3,46.2,30.13,ENE,70,0.0,-999.0,50,0.00,,,0.00,Wunderground v.1.12,2013-04-23 00:08:00,
2013-04-22 20:13:00,65.0,46.9,30.13,ENE,70,0.0,-999.0,52,0.00,,,0.00,Wunderground v.1.12,2013-04-23 00:13:00,
2013-04-22 20:18:00,64.5,47.0,30.13,ENE,70,0.0,-999.0,53,0.00,,,0.00,Wunderground v.1.12,2013-04-23 00:18:00,
2013-04-22 20:23:00,64.2,47.2,30.13,ENE,70,0.0,-999.0,54,0.00,,,0.00,Wunderground v.1.12,2013-04-23 00:23:00,
2013-04-22 20:28:00,63.7,46.7,30.13,ENE,70,0.0,-999.0,54,0.00,,,0.00,Wunderground v.1.12,2013-04-23 00:28:00,
2013-04-22 20:33:00,63.4,46.9,30.13,ENE,70,0.0,-999.0,55,0.00,,,0.00,Wunderground v.1.12,2013-04-23 00:33:00,
2013-04-22 20:39:00,62.9,46.5,30.13,ENE,70,0.0,-999.0,55,0.00,,,0.00,Wunderground v.1.12,2013-04-23 00:39:00,
2013-04-22 20:44:00,62.6,47.1,30.14,ENE,70,0.0,-999.0,57,0.00,,,0.00,Wunderground v.1.12,2013-04-23 00:44:00,
2013-04-22 20:49:00,62.1,46.7,30.14,ENE,70,0.0,-999.0,57,0.00,,,0.00,Wunderground v.1.12,2013-04-23 00:49:00,
2013-04-22 20:55:00,61.8,46.9,30.14,ENE,70,0.0,-999.0,58,0.00,,,0.00,Wunderground v.1.12,2013-04-23 00:55:00,
2013-04-22 21:00:00,61.3,46.8,30.14,ENE,70,0.0,-999.0,59,0.00,,,0.00,Wunderground v.1.12,2013-04-23 01:00:00,
2013-04-22 21:05:00,60.9,46.9,30.14,ENE,70,0.0,-999.0,60,0.00,,,0.00,Wunderground v.1.12,2013-04-23 01:05:00,
2013-04-22 21:10:00,60.4,46.9,30.14,ENE,70,0.0,-999.0,61,0.00,,,0.00,Wunderground v.1.12,2013-04-23 01:10:00,
2013-04-22 21:15:00,60.1,47.0,30.14,ENE,70,0.0,-999.0,62,0.00,,,0.00,Wunderground v.1.12,2013-04-23 01:15:00,
2013-04-22 21:20:00,59.6,46.6,30.14,ENE,70,0.0,-999.0,62,0.00,,,0.00,Wunderground v.1.12,2013-04-23 01:20:00,
2013-04-22 21:25:00,59.3,46.7,30.14,ENE,70,0.0,-999.0,63,0.00,,,0.00,Wunderground v.1.12,2013-04-23 01:25:00,
2013-04-22 21:30:00,59.0,46.8,30.15,ENE,70,0.0,-999.0,64,0.00,,,0.00,Wunderground v.1.12,2013-04-23 01:30:00,
2013-04-22 21:35:00,58.7,47.0,30.15,ENE,70,0.0,-999.0,65,0.00,,,0.00,Wunderground v.1.12,2013-04-23 01:35:00,
2013-04-22 21:40:00,58.4,46.7,30.15,ENE,70,0.0,-999.0,65,0.00,,,0.00,Wunderground v.1.12,2013-04-23 01:40:00,
2013-04-22 21:45:00,58.1,46.4,30.16,ENE,70,0.0,-999.0,65,0.00,,,0.00,Wunderground v.1.12,2013-04-23 01:45:00,
2013-04-22 21:50:00,57.8,46.5,30.16,ENE,70,0.0,-999.0,66,0.00,,,0.00,Wunderground v.1.12,2013-04-23 01:50:00,
2013-04-22 21:55:00,57.5,46.2,30.16,ENE,70,0.0,-999.0,66,0.00,,,0.00,Wunderground v.1.12,2013-04-23 01:55:00,
2013-04-22 22:00:00,57.2,46.3,30.16,ENE,70,0.0,-999.0,67,0.00,,,0.00,Wunderground v.1.12,2013-04-23 02:00:00,
2013-04-22 22:05:00,56.9,46.4,30.16,ENE,70,0.0,-999.0,68,0.00,,,0.00,Wunderground v.1.12,2013-04-23 02:05:00,
2013-04-22 22:10:00,56.7,46.6,30.16,ENE,70,0.0,-999.0,69,0.00,,,0.00,Wunderground v.1.12,2013-04-23 02:10:00,
2013-04-22 22:15:00,56.5,46.8,30.16,ENE,70,0.0,-999.0,70,0.00,,,0.00,Wunderground v.1.12,2013-04-23 02:15:00,
2013-04-22 22:20:00,56.2,46.5,30.16,ENE,70,0.0,-999.0,70,0.00,,,0.00,Wunderground v.1.12,2013-04-23 02:20:00,
2013-04-22 22:25:00,56.0,46.7,30.17,ENE,70,0.0,-999.0,71,0.00,,,0.00,Wunderground v.1.12,2013-04-23 02:25:00,
2013-04-22 22:30:00,55.7,46.1,30.17,ENE,70,0.0,-999.0,70,0.00,,,0.00,Wunderground v.1.12,2013-04-23 02:30:00,
2013-04-22 22:35:00,55.6,46.0,30.17,ENE,70,0.0,-999.0,70,0.00,,,0.00,Wunderground v.1.12,2013-04-23 02:35:00,
2013-04-22 22:40:00,55.4,45.4,30.17,ENE,70,0.0,-999.0,69,0.00,,,0.00,Wunderground v.1.12,2013-04-23 02:40:00,
2013-04-22 22:45:00,55.3,45.3,30.17,ENE,70,0.0,-999.0,69,0.00,,,0.00,Wunderground v.1.12,2013-04-23 02:45:00,
2013-04-22 22:50:00,55.1,45.1,30.17,ENE,70,0.0,-999.0,69,0.00,,,0.00,Wunderground v.1.12,2013-04-23 02:50:00,
2013-04-22 22:55:00,55.0,45.4,30.18,ENE,70,0.0,-999.0,70,0.00,,,0.00,Wunderground v.1.12,2013-04-23 02:55:00,
2013-04-22 23:00:00,54.8,45.6,30.18,ENE,70,0.0,-999.0,71,0.00,,,0.00,Wunderground v.1.12,2013-04-23 03:00:00,
2013-04-22 23:05:00,54.7,45.1,30.18,ENE,70,0.0,-999.0,70,0.00,,,0.00,Wunderground v.1.12,2013-04-23 03:05:00,
2013-04-22 23:10:00,54.7,45.1,30.17,ENE,70,0.0,-999.0,70,0.00,,,0.00,Wunderground v.1.12,2013-04-23 03:10:00,
2013-04-22 23:15:00,54.5,44.5,30.17,ENE,70,0.0,-999.0,69,0.00,,,0.00,Wunderground v.1.12,2013-04-23 03:15:00,
2013-04-22 23:20:00,54.5,44.9,30.17,ENE,58,0.0,-999.0,70,0.00,,,0.00,Wunderground v.1.12,2013-04-23 03:20:00,
2013-04-22 23:25:00,54.5,44.5,30.17,ENE,58,0.0,-999.0,69,0.00,,,0.00,Wunderground v.1.12,2013-04-23 03:25:00,
2013-04-22 23:30:00,54.5,44.2,30.17,ENE,58,0.0,-999.0,68,0.00,,,0.00,Wunderground v.1.12,2013-04-23 03:30:00,
2013-04-22 23:36:00,54.5,43.8,30.17,NE,51,0.0,-999.0,67,0.00,,,0.00,Wunderground v.1.12,2013-04-23 03:36:00,
2013-04-22 23:41:00,54.7,43.6,30.17,ESE,109,0.0,-999.0,66,0.00,,,0.00,Wunderground v.1.12,2013-04-23 03:41:00,
2013-04-22 23:46:00,54.8,43.3,30.17,ENE,70,0.0,-999.0,65,0.00,,,0.00,Wunderground v.1.12,2013-04-23 03:46:00,
2013-04-22 23:51:00,54.8,43.3,30.17,ENE,71,0.0,-999.0,65,0.00,,,0.00,Wunderground v.1.12,2013-04-23 03:51:00,
2013-04-22 23:56:00,54.8,42.9,30.17,ENE,71,0.0,-999.0,64,0.00,,,0.00,Wunderground v.1.12,2013-04-23 03:56:00,